BRASILSAT B3

Last updated on Thu Aug 16 2018 00:20:22 GMT+0000 (Coordinated Universal Time)

1 25152U 98006A 18227.54053428 -.00000067 00000-0 00000+0 0 9992 2 25152 4.8424 67.2628 0000389 354.1165 6.7174 0.99214496 75220

Satellite not in orbit

BRASILSAT B3